Tracking 21472 objects as of 22-Sep-2020
HD Live streaming from Space Station
objects crossing your sky now

CLUSTER II-FM7

Track CLUSTER II-FM7 now!
CLUSTER II-FM7 is classified as:


NORAD ID: 26411
Int'l Code: 2000-041B
Perigee: 23,824.9 km
Apogee: 108,974.1 km
Inclination: 132.2 °
Period: 3,256.1 minutes
Semi major axis: 72770 km
RCS: 1.5887 m2 (large)
Launch date: July 16, 2000
Source: European Space Agency (ESA)
Launch site: TYURATAM MISSILE AND SPACE COMPLEX (TTMTR)
aabbcc
Your satellite tracking list
Your tracking list is empty




NASA's NSSDC Master Catalog

Two Line Element Set (TLE):
1 26411U 00041B   20266.70840987 -.00000306 +00000-0 +00000-0 0  9998
2 26411 132.2015 343.7580 5850526 191.3736 000.5855 00.44225210011062
Source of the keplerian elements: AFSPC